www.pogodaiklimat.ru

Погода и климат >> Архив погоды >> Непал >> Гхорахи


ПОГОДА в Гхорахи

  • Прогноз погоды в Гхорахи
  • Монитор погоды в Гхорахи

АРХИВ ПОГОДЫ в Гхорахи

Время (UTC), дата Ветер
(напр.,м/с)
 
Видим.   Явления Облачность Т
(С)
Тd
(С)
f
(%)
Тe
(С)
Тes
(С)
Комфортность P
(гПа)
Po
(гПа)
Тmin
(С)
Tmax
(С)
R
(мм)
R24
(мм)
S
(см)
09 12.08 СЗ 1 8000 м 8/4 300 м
[Sc diur, vesp Ac und Ci]
+33.6 +25.7 63 +48 +56 опасность
перегрева
998.9 926.3
12 12.08 штиль 0 7000 м в посл. час дождь {гроза} 9/5 300 м
[Sc Ac As Ci sp]
+24.8 +23.2 91 +33 +34 очень
душно
998.5 925.9 +34.2 16
00 13.08 штиль 0 6000 м 4/1 300 м
[Cu Sc Ac As Ci ing]
+24.6 +24.1 97 +34 +34 очень
душно
998.6 926.0
03 13.08 Ю 1 8000 м 9/6 300 м
[Cu Sc Ac und Ci sp]
+27.6 +25.8 90 +41 +44 опасность
перегрева
1001.0 928.1 +24.5 17
06 13.08 З 1 12 км 9/5 200 м
[Sc diur, vesp Ac und Ci fib]
+23.7 +20.6 83 +30 +37 очень
душно
820.9
09 13.08 В 2 8000 м 6/4 300 м
[Sc diur, vesp Ac cast Ci sp]
+30.6 +23.2 65 +41 +49 опасность
перегрева
1000.7 927.6
12 13.08 Ю 1 8000 м 6/3 300 м
[Sc diur, vesp Ac As Ci sp]
+32.1 +24.4 64 +45 +45 опасность
перегрева
1000.5 927.4 +32.1
21 13.08 штиль 0 6000 м 10/9 300 м
[Cu Sc As trans]
+25.4 +24.3 94 +35 +35 очень
душно
1001.3 928.2
03 14.08 В 1 8000 м 6/4 300 м
[Cu Sc Ac und]
+26.2 +24.5 90 +37 +42 очень
душно
1001.6 928.7 +25.0
06 14.08 ЮВ 1 10 км 8/4 300 м
[Cu med, cong Ac und Ci sp]
+28.4 +24.5 79 +40 +50 очень
душно
1001.6 928.7
09 14.08 Ю 2 10 км 6/4 300 м
[Sc diur, vesp Ac cast Ci sp]
+29.8 +24.9 75 +43 +50 опасность
перегрева
1001.2 928.1
12 14.08 В 2 8000 м 8/5 300 м
[Sc diur, vesp Ac cast Ci fib]
+29.2 +24.1 74 +41 +41 опасность
перегрева
1000.9 927.8 +31.2
06 15.08 В 1 8000 м 9/9 300 м
[Cu Sc As trans]
+28.2 +23.9 78 +39 +41 очень
душно
1003.0 929.6
09 15.08 В 5 7000 м слаб. морось 10/9 300 м
[Cu Sc As trans]
+28.0 +23.4 76 +38 +38 очень
душно
1002.4 929.0
12 15.08 ЮВ 2 8000 м 5/3 300 м
[Cu Sc Ac lent Cs]
+27.2 +24.3 84 +38 +39 очень
душно
1001.9 928.5 +30.6 2
00 16.08 штиль 0 6000 м 10/9 300 м
[Cu Sc As trans]
+24.6 +23.5 94 +33 +33 очень
душно
1002.2 928.8
03 16.08 В 1 6000 м слаб. морось {дождь} 10/9 300 м
[Cu Sc As op]
+24.4 +23.9 97 +33 +34 очень
душно
1002.8 929.4 +24.2 10
06 16.08 В 2 7000 м 9/4 300 м
[Cu Sc Ac cast Cs]
+28.0 +23.7 77 +38 +45 очень
душно
1003.4 930.0
09 16.08 Ю 1 8000 м 9/4 300 м
[Sc diur, vesp Ac cast Cs]
+30.2 +24.5 72 +43 +48 опасность
перегрева
1001.8 928.7
12 16.08 В 1 7000 м 9/5 300 м
[Sc diur, vesp Ac cast Ci sp]
+28.4 +24.5 79 +40 +40 очень
душно
1001.1 928.0 +31.3 0.0
00 17.08 В 1 6000 м 10/9 300 м
[Cu Sc As op]
+23.4 +22.6 95 +32 +32 очень
душно
1001.9 928.8
03 17.08 В 1 8000 м 6/4 300 м
[Cu med, cong Ac und Ci sp]
+27.4 +23.4 79 +37 +42 очень
душно
1003.0 929.6 +23.4 13
06 17.08 В 1 10 км 5/4 300 м
[Cu med, cong Ac und]
+30.8 +24.2 68 +43 +55 опасность
перегрева
1003.0 929.6
09 17.08 Ю 2 8000 м 4/3 600 м
[Cu med, cong Ci fib]
+34.6 +30.3 78 +62 +71 опасность
перегрева
1001.6 984.2
12 17.08 В 1 8000 м 6/3 300 м
[Sc diur, vesp Ac As Cs]
+28.4 +23.9 77 +39 +40 очень
душно
1002.0 928.6 +31.2
00 18.08 штиль 0 6000 м 9/4 300 м
[Cu Sc Ac As Cs]
+24.6 +24.1 97 +34 +34 очень
душно
1002.9 929.5
03 18.08 ЮЗ 1 6000 м 10/9 300 м
[Cu Sc As trans]
+26.6 +25.0 91 +38 +39 очень
душно
1003.9 930.8 +24.4 2
06 18.08 Ю 1 8000 м 5/5 300 м
[Sc diur, vesp]
+30.2 +24.8 73 +43 +56 опасность
перегрева
1003.7 930.6
09 18.08 З 1 7000 м слаб. морось {дождь} 9/5 300 м
[Sc Ac As]
+29.2 +26.7 86 +45 +49 опасность
перегрева
1002.7 929.6
12 18.08 СЗ 1 7000 м в посл. час дождь {морось} 10/5 300 м
[Sc diur, vesp As trans]
+26.8 +24.4 87 +38 +38 очень
душно
1002.8 929.7 +31.6 30
00 19.08 В 1 6000 м 8/4 300 м
[Cu Sc Ac As Ci sp]
+23.6 +22.8 95 +31 +31 очень
душно
1003.6 930.5
03 19.08 В 1 6000 м 10/9 300 м
[Cu Sc As trans]
+24.0 +23.1 95 +32 +32 очень
душно
1005.0 931.9 +23.4 41

 

Местоположение метеостанции Гхорахи (Непал): широта 28.05 долгота 82.50 высота над уровнем моря 634 м.

В архиве по умолчанию представлена погода в Гхорахи за последнюю неделю. Архивные данные за месяц целиком и за предыдущие месяцы, начиная с января 2011 года, Вы можете получить, выбрав интересующий диапазон дат из раскрывающегося списка и нажав кнопку "Ввод!".


*Определитесь, кто Вы:
робот инопланетянин человек

Внимание! Время в таблицах - всемирное. Для получения местного времени необходимо прибавить поправку, которая равна 5.5 ч.

Смотрите также архив погоды в соседних городах и на ближайших метеорологических станциях:

Погода в Непалгандже (Непал) (82 км)
Погода в Бахрайче (Уттар-Прадеш, Индия) (103 км)
Погода в Суркхете (Непал) (106 км)
Погода в Сиддхартханагаре (Непал) (111 км)
Погода в Джумле (Непал) (141 км)
Погода в Покхаре (Непал) (146 км)
Погода в Горакпуре (Уттар-Прадеш, Индия) (168 км)
Погода в Дипаял-Силгадхи (Непал) (202 км)
Погода в Султанпуре (Уттар-Прадеш, Индия) (203 км)
Погода в Дхангадхи (Непал) (208 км)

Пояснения к столбцам:

Ветер - указаны скорость ветра в м/с - средняя за 10 мин, порывы в срок и между сроками (в фигурных скобках) и направление, откуда дует ветер: С - северный, СВ - северо-восточный, В - восточный, ЮВ - юго-восточный, Ю - южный, ЮЗ - юго-западный, З - западный, СЗ - северо-западный.
Видимость - горизонтальная дальность видимости в метрах или километрах. При видимости от 1 до 10 км при отсутствии осадков обычно наблюдается дымка, при ухудшении видимости до 1 км и менее - туман. В сухую погоду видимость может ухудшаться дымом, пылью или мглою.
Явления - указаны атмосферные явления, наблюдавшиеся в срок или в последний час перед сроком; фигурными скобками обозначены явления, наблюдавшиеся между сроками (за 1-3 часа до срока); квадратными скобками обозначены град или гололедные отложения с указанием их диаметра в мм.
Облачность - указаны через наклонную черту общая и нижняя облачность в баллах и высота нижней границы облаков в метрах; квадратными скобками обозначены формы облаков: Ci - перистые, Cs - перисто-слоистые, Cc - перисто-кучевые, Ac - высококучевые, As - высокослоистые, Sc - слоисто-кучевые, Ns - слоисто-дождевые, Cu - кучевые, Cb - кучево-дождевые. Подробнее классификацию облаков см. в Атласе облаков (PDF).
T - Температура воздуха - температура, измеренная на высоте 2 м над землей.
Td - Температура точки росы - температура, при понижении до которой содержащийся в воздухе водяной пар достигнет насыщения.
f - Относительная влажность воздуха - влажноcть воздуха, измеренная на высоте 2 м над землей.
Te - Эффективная температура - температура, которую ощущает одетый по сезону человек в тени. Характеристика душности погоды. При расчете учитывается влияние влажности воздуха и скорости ветра на теплоощущения человека.
Tes - Эффективная температура на солнце - температура, которую ощущает человек, с поправкой на солнечный нагрев. Характеристика знойности погоды. Зависит от высоты солнца над горизонтом, облачности и скорости ветра. Ночью, в пасмурную погоду, а также при ветре 12 м/с и более поправка равна нулю.
P - Атмосферное давление - приведенное к уровню моря атмосферное давление.
Po - Атмосферное давление - измеренное на уровне метеостанции атмосферное давление.
Tmin - Минимальная температура - минимум температуры воздуха на высоте 2 м над землей.
Tmax - Максимальная температура - максимум температуры воздуха на высоте 2 м над землей.
R - Количество осадков - Количество выпавших осадков за период времени, мм. При наведении курсора мыши на число - период времени, за который выпало указанное количество осадков.
R24 - Количество осадков - Количество выпавших осадков за 24 часа, мм.
S - Снежный покров - Высота снежного покрова, см. При наведении курсора мыши на число - состояние снежного покрова и степень покрытия местности в баллах.